Regional Weather Roundup
Issued by NWS Austin/San Antonio, TX

Current Version | Previous Version | Text Only | Print | Product List | Glossary On
Versions: 1 2 3 4 5 6 7 8 9 10 11 12 13 14 15 16 17 18 19 20 21 22 23 24 25 26 27 28 29 30 31 32 33 34 35 36 37 38 39 40 41 42 43 44 45 46 47 48 49 50
000
ASUS44 KEWX 270111
RWREWX
SOUTH TEXAS REGIONAL WEATHER ROUNDUP
NATIONAL WEATHER SERVICE AUSTIN/SAN ANTONIO TX
800 PM CDT MON OCT 26 2020

NOTE: "FAIR" INDICATED FEW OR NO CLOUDS BELOW 12,000 FEET WITH NO
SIGNIFICANT WEATHER AND/OR OBSTRUCTIONS TO VISIBILITY.

* - THESE STATIONS ARE NOT NWS OR FAA STATIONS...AND ARE NOT SUBJECT
    TO NWS AND FAA QUALITY CONTROL.

TXZ171-172-183>190-270200-
TEXAS HILL COUNTRY AND EDWARDS PLATEAU

CITY           SKY/WX    TMP DP  RH WIND       PRES   REMARKS
JUNCTION       CLOUDY    39  34  82 NE14      30.11R WCI  31
*LLANO         MIX PCPN  41  39  93 N12G18    30.10R FOG     WCI  34
BURNET         CLOUDY    42  39  89 N12G20    30.10R WCI  36
*HORSESHOE BAY CLOUDY    43  43 100 N12G17    30.10R WCI  37
*LAGO VISTA    HVY RAIN  42  41  98 N8G16     30.06R WCI  37
*KERRVILLE     CLOUDY    41  37  87 N14G22    30.04R WCI  33
*FREDERICKSBRG CLOUDY    40  39  99 N15       30.07R WCI  31
*ROCKSPRINGS   CLOUDY    37  36  93 NE14G23   30.06R WCI  29
*BOERNE        CLOUDY    41  41 100 N13G26    30.03R WCI  34
*CASTROVILLE   CLOUDY    53  43  70 NE15G21   29.99R
HONDO          CLOUDY    49  41  74 N21G30    29.97R WCI  42
*UVALDE        CLOUDY    51  42  70 N13       29.99R
DEL RIO        CLOUDY    48  38  68 NW17G26   30.04R WCI  42
*LAUGHLIN AFB  CLOUDY    46  37  71 N21       30.03R WCI  38
*SPOFFORD      CLOUDY    48  40  73 NW15G24   29.95R WCI  42
*EAGLE PASS    NOT AVBL
CARRIZO SPRGS  PTCLDY    59  43  55 N10G17    29.93R
*FAITH RANCH   CLOUDY    54  41  62 N18G28    29.95R
$$

TXZ173-191>194-202-209-217>225-228-270200-
CENTRAL AND SOUTH CENTRAL TEXAS

CITY           SKY/WX    TMP DP  RH WIND       PRES   REMARKS
GEORGETOWN     CLOUDY    44  43  96 N16       30.08R WCI  37
*TAYLOR        CLOUDY    45  44  95 N16       30.06R FOG     WCI  38
AUSTIN/BERGSTM CLOUDY    47  43  86 N14G23    30.05R WCI  41
AUSTIN/MABRY   CLOUDY    45  42  89 N9G16     30.07R WCI  40
*PFLUGERVILLE  CLOUDY    45  43  93 N14       30.06R FOG     WCI  38
SAN MARCOS     CLOUDY    46  44  93 N18G26    30.04R WCI  39
NEW BRAUNFELS  CLOUDY    50  43  77 N23G31    30.00R WCI  43
*RANDOLPH AFB    N/A     49  45  86 N20       29.99R WCI  42
*SEGUIN        CLOUDY    48  44  88 N16G26    30.05R WCI  41
SAN ANTONIO    CLOUDY    48  42  80 N17G32    30.00R WCI  42
STINSON FIELD  CLOUDY    50  44  80 N16G29    29.97R WCI  44
*KELLY FIELD   CLOUDY    50  45  81 NE22G30   29.96R WCI  43
*PLEASANTON    CLOUDY    55  47  74 NE12G22   29.96R
*KENEDY        MOCLDY    56  49  77 N16       29.96R
*LA GRANGE     CLOUDY    51  51  99 N12G18    30.00R
*GIDDINGS      CLOUDY    51  49  93 N9G18     30.03R FOG
*GONZALES      CLOUDY    51  47  83 N16G23    30.00R
$$

TXZ163>164-176>182-195>201-210>213-226-227-235-270200-
SOUTHEAST TEXAS

CITY           SKY/WX    TMP DP  RH WIND       PRES   REMARKS
COLLEGE STN    CLOUDY    53  51  93 N12       30.01R
*BRYAN         CLOUDY    52  52 100 N12       30.03S
*CALDWELL      LGT RAIN  48 N/A N/A N10       30.03R WCI  44
*CROCKETT      NOT AVBL
*BRENHAM       CLOUDY    55  53  94 N12       30.01R
HUNTSVILLE     CLOUDY    60  55  83 N7        29.99R
CONROE         CLOUDY    76  67  73 CALM      29.96R
HOUSTON BUSH   PTCLDY    72  68  87 SE9       29.94R
HOUSTON HOBBY  PTCLDY    75  69  81 E9        29.94R
*HOUSTON SW AP CLEAR     72  70  93 SE6       29.94R
PEARLAND       PTCLDY    75  68  78 E5        29.95R
HOUSTON HOOKS  CLOUDY    76  67  73 CALM      29.95R
ELLINGTON FLD  PTCLDY    73  70  88 E9        29.94R
SUGAR LAND     PTCLDY    76  70  82 SE10      29.93R
*HOUSTON EXEC  CLOUDY    61  59  94 NW10G17   29.98R
*CLEVELAND MUN CLEAR     69  68  96 CALM      29.96R FOG
*WHARTON       PTCLDY    69  60  74 N13G18    29.95R
*COLUMBUS      CLOUDY    55  53  94 N10G20    29.99R
*EAGLE LAKE    CLOUDY    58  55  89 N13G22    29.98R
$$

TXZ214>216-236>238-270200-
THE UPPER TEXAS COAST

CITY           SKY/WX    TMP DP  RH WIND       PRES   REMARKS
*ORANGE        MOCLDY    74  66  76 SE3       29.99R
PORT ARTHUR    MOCLDY    72  66  81 E8        29.96R
GALVESTON      CLEAR     77  68  73 E12       29.95R
ANGLETON       CLEAR     75  70  84 E8        29.94R
*BAY CITY      CLEAR     74  70  87 E7        29.92R
PALACIOS       PTCLDY    76  71  85 MISG      29.91R
$$

TXZ229>234-239>247-270200-
TEXAS COASTAL BEND AND RIO GRANDE PLAINS

CITY           SKY/WX    TMP DP  RH WIND       PRES   REMARKS
VICTORIA       CLEAR     73  69  87 E3        29.91R
*BEEVILLE      NOT AVBL
ROCKPORT       PTCLDY    77  73  87 E15       29.88R
*PORT ARANSAS  CLEAR     79  73  80 E12       29.89R
*PORT LAVACA   CLEAR     79  70  73 SE8       29.90R
*INGLESIDE     CLEAR     79  78  98 SE12      29.87R
CORPUS CHRISTI PTCLDY    79  72  78 E15G22    29.86R
CORPUS NAS     CLEAR     80  73  79 E20       29.86R
*ROBSTOWN      PTCLDY    78  71  77 SE15      29.87R
ALICE          MOCLDY    79  72  79 SE13      29.85R
KINGSVILLE NAS PTCLDY    78  72  81 E12       29.85R
COTULLA        CLOUDY    65  51  60 N17G25    29.91R
LAREDO         MOCLDY    67  48  50 N17G26    29.86R
$$

TXZ248>255-270200-
DEEP SOUTH TEXAS

CITY           SKY/WX    TMP DP  RH WIND       PRES   REMARKS
BROWNSVILLE    CLEAR     80  71  74 E9        29.83R
PORT ISABEL    CLEAR     79  72  79 E16       29.83R
HARLINGEN      CLEAR     79  73  82 SE14      29.82R
*HEBBRONVILLE  PTCLDY    79  69  71 SE15G23   29.85R
MCALLEN        CLEAR     87  69  54 SE17      29.81R HX  91
*WESLACO       CLOUDY    81  69  67 SE12G17   29.81R
FALFURRIAS     MOCLDY    76  70  83 SE9       29.84R
EDINBURG       CLEAR     80  68  68 E15       29.81R
*ZAPATA        NOT AVBL
$$

TXZ213>215-236>238-242>244-246-247-251-254-255-270200-
CMAN STATIONS

STATION/POSITION TIME  TEMP    WIND        PRES    WAVE
                       AIR SEA DIR/SP/G            HT/PER
                 (UTC) (F)     (DEG/KT/KT) (MB)    (FT/S)
NORTH JETTY/GLS  0030   80 76  100/ 15/ 18 1012.7
EAGLE POINT      0030   75 75  100/ 10/ 13 1013.2
MORGANS POINT    0030   74 77  120/  9/ 11 1013.9
PORT O`CONNOR    0030   77 81  110/ 13/ 16 1011.9
MALAQUITE BEACH  0030   79      90/ 16/ 18   N/A
BAFFIN BAY       0030   79 81   90/ 17/ 23 1009.8
PORT ISABEL      0030   80 81  110/ 10/ 15 1012.0
$$



USA.gov is the U.S. government's official web portal to all federal, state and local government web resources and services.